CZ-8A R/B, 62980

Orbit data source: Space-Track

CZ-8A R/B, 62980 is space debris in LEO originally from a launch on Tue, 11 Feb 2025 UTC launched from the Wenchang Satellite Launch Center (WSC). Debris objects in space refer to the collection of defunct objects orbiting the Earth. Examples of debris include non-operational satellites, rocket bodies, and fragments generated from explosions, collisions, or faulty payload assembly.

Loading next visibility...
Identifier
62980, 2025-030K
Orbit
LEO
Country
Flag of CNCN / PRC
Related business
Manufacturer
CALT
Mission
Spacecraft
Bus & Motor
CZ-8A STAGE 2, Unknown motor
Mass
~2,800 kg wet, ~2,800 kg dry
Launch date (UTC)
2025-02-11 (1 year ago)
Launch vehicle
Unknown
Launch site
Wenchang Satellite Launch Center (WSC)
Object type
Payload
Rocket body
Debris
Shape & HBR
Cyl, 4.2 m
Radar Cross Section
36.967 m², Large (>1 m²)

Expand to show TLE details & history
Last TLE update: 5 hours ago

TLE from 5 hours ago
0 CZ-8A R/B
1 62980U 25030K   26038.51797623  .00000291  00000-0  15419-3 0  9999
2 62980  50.0058 130.7378 0118313 280.0886  78.6700 14.32903953 51770
Epoch: 2026-02-07T12:25Z
TLE epoch observation values (Epoch: 2026-02-07T12:25:53.146Z)
Latitude
-0.00006°
Longitude
166.62595°
Altitude
766.898 km
Speed
7.48 km/s
True Right ascension
08h 42m 57s
True Declination
0° 00' 00"
Sunlit
Object was in full shadow at epoch
Visualization orbit readout
Latitude
Unknown
Longitude
Unknown
Altitude
Unknown
Speed
Unknown
Apparent Right ascension
Unknown
Apparent Declination
Unknown
Sunlit
N/A
Visualization observer readout
Local Sidereal Time
19:14:20
Azimuth
Unknown
Elevation
Unknown
Doppler factor
Unknown
Orbital elements
Apogee altitude
867.504 km
Perigee altitude
698.058 km
Semi-major axis
7,160.918 km
Eccentricity
0.01183
Inclination
50.0058°
RAAN
130.7378°
Arg. of periapsis
280.0886°
True anomaly
80.0031°
Mean anomaly
78.67°
Eccentric anomaly
79.33618°
Mean motion
3.58171 °/min
Orbital period
100.51 mins
BSTAR
0.00015419
Loading maneuver chart data...
Computing Atmospheric mass density...
Loading historical data...
Loading historical data...
Loading historical data...
Loading historical data...
Loading historical data...
Loading historical data...
Loading historical data...

Documentation

Showing up to 5 results
|